Find Starlink 3996

NORAD ID: 52617 Int'l Des: 2022-052 Owner: SPXS Country: US Constellation: starlink operational
LEOCIRCULAR

Live Position

Loading 3D Globe...

About Starlink 3996

Description loading...

Upcoming Passes

Passes for default location (London). Set your location on the main map for personalized predictions.

Altitude History

Loading altitude history...

Two-Line Element Set

1 52617U 22052V 26123.85678898 -.00001152 00000-0 -54261-4 0 9998
2 52617 53.2177 21.4657 0001487 88.1292 271.9871 15.08847428219311
Epoch: May 3, 2026 • Age: 6 hours

Current Status

Altitude 559.0 km
Velocity 7.58 km/s
Sub-Earth Point -52.50°S, 44.2°E
Launch Date May 14, 2022
Age 3.9 years
Type internet

Technical Details

Classification Payload
Mass 297.00 kg
Dry Mass 275.00 kg
Total Mass 297.00 kg
Length 0.20 m
Diameter 2.80 m
Span 9.00 m
Shape Box + pan
Manufacturer SPXS
Bus Type Starlink
Phase Status In Orbit
Owner/State SPXS/US

Most Searched